TimeEDT,TemperatureF,Dew PointF,Humidity,Sea Level PressureIn,VisibilityMPH,Wind Direction,Wind SpeedMPH,Gust SpeedMPH,PrecipitationIn,Events,Conditions,WindDirDegrees,DateUTC
12:54 AM,37.0,35.1,93,29.83,-9999.0,North,-9999.0,-,N/A,,Unknown,0,2013-05-26 04:54:00
1:54 AM,37.9,35.1,89,29.81,-9999.0,North,-9999.0,-,N/A,,Unknown,0,2013-05-26 05:54:00
2:54 AM,37.0,35.1,93,29.80,-9999.0,North,-9999.0,-,0.02,,Unknown,0,2013-05-26 06:54:00
3:54 AM,37.0,35.1,93,29.80,-9999.0,North,-9999.0,-,0.04,,Unknown,0,2013-05-26 07:54:00
4:54 AM,35.1,34.0,96,29.81,-9999.0,North,-9999.0,-,0.11,,Unknown,0,2013-05-26 08:54:00
5:54 AM,35.1,35.1,100,29.82,-9999.0,North,-9999.0,-,0.05,,Unknown,0,2013-05-26 09:54:00
6:54 AM,37.0,37.0,100,29.83,-9999.0,North,-9999.0,-,N/A,,Unknown,0,2013-05-26 10:54:00
7:54 AM,39.9,37.0,89,29.84,-9999.0,North,-9999.0,-,N/A,,Unknown,0,2013-05-26 11:54:00
8:54 AM,39.9,37.9,93,29.86,-9999.0,North,-9999.0,-,N/A,,Unknown,0,2013-05-26 12:54:00
9:54 AM,43.0,36.0,76,29.86,-9999.0,North,-9999.0,-,N/A,,Unknown,0,2013-05-26 13:54:00
10:54 AM,46.0,37.9,73,29.86,-9999.0,North,-9999.0,-,N/A,,Unknown,0,2013-05-26 14:54:00
11:54 AM,45.0,37.0,74,29.88,-9999.0,North,-9999.0,-,N/A,,Unknown,0,2013-05-26 15:54:00
12:54 PM,46.9,36.0,66,29.89,-9999.0,North,-9999.0,-,N/A,,Unknown,0,2013-05-26 16:54:00
1:54 PM,48.0,36.0,63,29.90,-9999.0,North,-9999.0,-,N/A,,Unknown,0,2013-05-26 17:54:00
2:54 PM,50.0,37.9,63,29.91,-9999.0,North,-9999.0,-,N/A,,Unknown,0,2013-05-26 18:54:00
3:54 PM,50.0,37.0,61,29.93,-9999.0,North,-9999.0,-,N/A,,Unknown,0,2013-05-26 19:54:00
4:54 PM,50.0,37.9,63,29.96,-9999.0,North,-9999.0,-,N/A,,Unknown,0,2013-05-26 20:54:00
5:54 PM,48.0,39.0,71,29.99,-9999.0,North,-9999.0,-,N/A,,Unknown,0,2013-05-26 21:54:00
6:54 PM,46.9,39.0,74,30.02,-9999.0,North,-9999.0,-,N/A,,Unknown,0,2013-05-26 22:54:00
7:54 PM,46.0,37.0,71,30.04,-9999.0,North,-9999.0,-,N/A,,Unknown,0,2013-05-26 23:54:00
8:54 PM,46.0,36.0,68,30.04,-9999.0,North,-9999.0,-,N/A,,Unknown,0,2013-05-27 00:54:00
9:54 PM,43.0,37.0,80,30.06,-9999.0,North,-9999.0,-,N/A,,Unknown,0,2013-05-27 01:54:00
10:54 PM,39.0,37.0,93,30.06,-9999.0,North,-9999.0,-,N/A,,Unknown,0,2013-05-27 02:54:00
11:54 PM,37.9,36.0,93,30.06,-9999.0,North,-9999.0,-,N/A,,Unknown,0,2013-05-27 03:54:00